• Join FlightAware (Why Join?)
  • Login
  • US Flag GB Flag 
15:35 EDT


 

Airport Tracker/Info


-or-


 

Live Flight TrackerFlight Track Log ✈ N77VZ ✈ 11-Oct-2013 ✈ KAPF - KSVH

Flight Track Log - Related Links

Times and Time Zones

All times are in EDT time to prevent confusion due to time zone crossing. See the N77VZ flight status page for this flight to view local times or setup timezone preferences in your user account.

Time Position Orientation Groundspeed Altitude Reporting Facility
EDT Latitude Longitude Course Direction KTS MPH feet Rate Location/Type
16:15 26.0869 -81.7281 336° Northwest 273 314 31,000  Level Miami Center
16:16 26.0989 -81.8072 280° West 275 316 8,600 -10,380 Descending Miami Center
16:17 26.1192 -81.8867 286° West 275 316 10,300 1,740 Climbing Miami Center
16:18 26.1372 -81.9706 283° West 280 322 12,100 1,800 Climbing Miami Center
16:19 26.6845 -81.7342 336° Northwest  Level Estimated
16:19 26.1550 -82.0592 283° West 288 331 13,900  Level Miami Center
16:20 26.1725 -82.1481 282° West 293 337 15,400 1,500 Climbing Miami Center
16:21 26.2244 -82.2128 312° West 290 334 16,900 1,500 Climbing Miami Center
16:22 26.3025 -82.2533 335° Northwest 291 335 18,400 1,320 Climbing Miami Center
16:23 26.3781 -82.2917 336° Northwest 297 342 19,600 1,200 Climbing Miami Center
16:24 26.4561 -82.3322 335° Northwest 302 348 20,900 1,320 Climbing Miami Center
16:25 26.5358 -82.3708 337° Northwest 302 348 22,300 1,380 Climbing Miami Center
16:26 26.6136 -82.4139 334° Northwest 307 353 23,700 1,380 Climbing Miami Center
16:27 26.6914 -82.4525 336° Northwest 307 353 25,100 1,380 Climbing Miami Center
16:28 26.7692 -82.4933 335° Northwest 307 353 26,500 1,380 Climbing Miami Center
16:29 26.8428 -82.5317 335° Northwest 307 353 27,900 1,380 Climbing Miami Center
16:30 26.9183 -82.5728 334° Northwest 296 341 29,300 1,020 Climbing Miami Center
16:31 26.9922 -82.6089 336° Northwest 296 341 30,000 300 Climbing Miami Center
16:32 27.0758 -82.6528 335° Northwest 309 356 30,000  Level Miami Center
16:33 27.1617 -82.6989 334° Northwest 322 371 30,000  Level Miami Center
16:34 27.2494 -82.7453 335° Northwest 334 384 30,000  Level Miami Center
16:35 27.3475 -82.7972 335° Northwest 343 395 30,000  Level Miami Center
16:37 27.5386 -82.8481 347° North 350 403 30,000  Level Jacksonville Center
16:38 27.6389 -82.8317 North 350 403 30,000  Level Jacksonville Center
16:39 27.7389 -82.8200 North 356 410 30,000  Level Jacksonville Center
16:40 27.8389 -82.8081 North 356 410 30,000  Level Jacksonville Center
16:41 27.9392 -82.7964 North 356 410 30,000  Level Jacksonville Center
16:42 28.0372 -82.7844 North 356 410 30,000  Level Jacksonville Center
16:43 28.1372 -82.7703 North 356 410 30,000  Level Jacksonville Center
16:44 28.2397 -82.7583 North 356 410 30,000  Level Jacksonville Center
16:45 28.3336 -82.7464 North 351 404 30,000  Level Jacksonville Center
16:46 28.4317 -82.7556 355° North 351 404 30,000 -60 Level Jacksonville Center
16:47 28.5256 -82.7839 345° North 345 397 29,900 -60 Descending Jacksonville Center
16:48 28.6214 -82.7814 North 345 397 29,900  Level Jacksonville Center
16:49 28.7300 -82.7647 North 350 403 30,000  Climbing Jacksonville Center
16:50 28.8261 -82.7528 North 350 403 29,900  Descending Jacksonville Center
16:51 28.9242 -82.7408 North 350 403 30,000  Climbing Jacksonville Center
16:52 29.0200 -82.7286 North 350 403 30,000  Level Jacksonville Center
16:53 29.1203 -82.7167 North 350 403 30,000  Level Jacksonville Center
16:54 29.2164 -82.7047 North 350 403 30,000  Level Jacksonville Center
16:55 29.3164 -82.6950 North 350 403 30,000  Level Jacksonville Center
16:56 29.4144 -82.6828 North 350 403 30,000  Level Jacksonville Center
16:57 29.5042 -82.6756 North 350 403 30,000  Level Jacksonville Center
16:58 29.6003 -82.6633 North 350 403 30,100 300 Climbing Jacksonville Center
16:59 29.7006 -82.6536 North 350 403 30,600 360 Climbing Jacksonville Center
17:00 29.8047 -82.6342 North 342 394 30,900 180 Climbing Jacksonville Center
17:01 29.9031 -82.6219 North 347 399 31,000  Climbing Jacksonville Center
17:02 29.9947 -82.6144 North 352 405 31,000 -60 Level Jacksonville Center
17:03 30.0928 -82.6069 North 352 405 30,900  Descending Jacksonville Center
17:04 30.1931 -82.5922 North 352 405 31,000  Climbing Jacksonville Center
17:05 30.2953 -82.5797 North 352 405 31,000  Level Jacksonville Center
17:06 30.3956 -82.5675 North 352 405 31,000  Level Jacksonville Center
17:07 30.4958 -82.5550 North 352 405 31,000  Level Jacksonville Center
17:08 30.5981 -82.5425 North 352 405 31,000 -60 Level Jacksonville Center
17:09 30.6983 -82.5278 North 352 405 30,900  Descending Jacksonville Center
17:10 30.8089 -82.5153 North 357 411 31,000  Climbing Jacksonville Center
17:11 30.9111 -82.5028 North 357 411 31,000  Level Jacksonville Center
17:12 31.0133 -82.4878 North 367 422 31,000  Level Jacksonville Center
17:13 31.1156 -82.4753 North 367 422 31,000  Level Jacksonville Center
17:14 31.2178 -82.4603 North 367 422 31,000 -60 Level Jacksonville Center
17:15 31.3203 -82.4475 North 367 422 30,900  Descending Jacksonville Center
17:18 31.6147 -82.4075 North 354 407 31,000  Climbing Atlanta Center
17:19 31.7128 -82.3933 North 341 392 31,000  Level Atlanta Center
17:20 31.8106 -82.3794 North 341 392 31,000  Level Atlanta Center
17:21 31.9128 -82.3678 North 347 399 31,000  Level Atlanta Center
17:22 32.0128 -82.3536 North 339 390 31,000  Level Atlanta Center
17:23 32.1128 -82.3394 North 351 404 31,000  Level Atlanta Center
17:24 32.2106 -82.3278 North 356 410 31,000  Level Atlanta Center
17:25 32.3189 -82.3111 North 356 410 31,000  Level Atlanta Center
17:26 32.4167 -82.2967 North 350 403 31,000  Level Atlanta Center
17:27 32.5189 -82.2825 North 350 403 31,000  Level Atlanta Center
17:28 32.6189 -82.2706 North 350 403 31,000  Level Atlanta Center
17:29 32.7167 -82.2564 North 350 403 31,000  Level Atlanta Center
17:30 32.8083 -82.2422 North 355 409 31,000  Level Atlanta Center
17:31 32.9042 -82.2303 North 355 409 31,000  Level Atlanta Center
17:32 33.0022 -82.2158 North 350 403 31,000  Level Atlanta Center
17:33 33.1042 -82.2014 North 350 403 31,000  Level Atlanta Center
17:34 33.2022 -82.1892 North 350 403 31,000 -180 Level Atlanta Center
17:35 33.3042 -82.1722 North 350 403 30,700 -660 Descending Atlanta Center
17:36 33.4042 -82.1575 North 350 403 29,700 -960 Descending Atlanta Center
17:37 33.5042 -82.1456 North 350 403 28,800 -960 Descending Atlanta Center
17:38 33.6061 -82.1308 North 355 409 27,800 -960 Descending Atlanta Center
17:39 33.7103 -82.1158 North 367 422 26,900 -1,020 Descending Atlanta Center
17:40 33.8228 -82.1008 North 367 422 25,800 -1,020 Descending Atlanta Center
17:41 33.9269 -82.0836 North 367 422 24,900 -900 Descending Atlanta Center
17:42 34.0289 -82.0711 North 367 422 24,000 -480 Descending Atlanta Center
17:43 34.1289 -82.0564 North 367 422 24,000 -420 Level Atlanta Center
17:44 34.2289 -82.0414 North 362 417 23,200 -900 Descending Atlanta Center
17:45 34.3133 -81.9842 29° Northeast 348 400 22,300 -960 Descending Atlanta Center
17:46 34.3981 -81.9267 29° Northeast 348 400 21,300 -1,020 Descending Atlanta Center
17:47 34.4847 -81.8639 31° Northeast 348 400 20,300 -960 Descending Atlanta Center
17:48 34.5628 -81.8089 30° Northeast 343 395 19,400 -1,020 Descending Atlanta Center
17:49 34.6475 -81.7561 27° Northeast 333 383 18,300 -1,020 Descending Atlanta Center
17:50 34.7297 -81.6958 31° Northeast 333 383 17,400 -960 Descending Atlanta Center
17:51 34.7833 -81.6564 31° Northeast 343 395 16,800 -1,020 Descending Atlanta Center
17:51 34.8081 -81.6381 31° Northeast 326 375 16,400 -1,020 Descending Atlanta Center
17:51 34.8306 -81.6222 30° Northeast 329 379 16,200 -1,020 Descending Atlanta Center
17:52 34.8864 -81.5850 29° Northeast 321 369 15,400 -1,020 Descending Atlanta Center
17:52 34.9089 -81.5692 30° Northeast 315 362 15,200 -840 Descending Atlanta Center
17:53 34.9561 -81.5350 31° Northeast 315 362 14,600 -1,020 Descending Atlanta Center
17:53 34.9869 -81.5136 30° Northeast 318 366 14,200 -1,200 Descending Atlanta Center
17:54 35.0322 -81.4819 30° Northeast 315 362 13,400 -1,620 Descending Atlanta Center
17:54 35.0611 -81.4581 34° Northeast 316 364 12,600 -1,920 Descending Atlanta Center
17:55 35.1064 -81.4314 26° Northeast 310 357 11,500 -1,920 Descending Atlanta Center
17:55 35.1328 -81.4025 42° Northeast 303 349 10,700 -2,040 Descending Atlanta Center
17:56 35.1739 -81.3733 30° Northeast 297 342 9,500 -1,980 Descending Atlanta Center
17:56 35.1967 -81.3650 17° North 281 323 8,900 -2,040 Descending Atlanta Center
17:57 35.2442 -81.3356 27° Northeast 271 312 7,500 -1,740 Descending Atlanta Center
17:57 35.2728 -81.3142 31° Northeast 252 290 7,000 -900 Descending Atlanta Center
17:58 35.3036 -81.2928 30° Northeast 257 296 6,600 -600 Descending Atlanta Center
17:58 35.3364 -81.2689 31° Northeast 256 295 6,400 -540 Descending Atlanta Center
17:59 35.3653 -81.2500 28° Northeast 277 319 6,100 -600 Descending Atlanta Center
17:59 35.4000 -81.2208 34° Northeast 280 322 5,800 -840 Descending Atlanta Center
18:00 35.4308 -81.1994 29° Northeast 247 284 5,300 -840 Descending Atlanta Center
18:00 35.4617 -81.1778 30° Northeast 245 282 5,000 -720 Descending Atlanta Center
18:01 35.5006 -81.1458 34° Northeast 246 283 4,600 -840 Descending Atlanta Center
18:01 35.5211 -81.1350 23° Northeast 250 288 4,200 -840 Descending Atlanta Center
18:02 35.5539 -81.1108 31° Northeast 274 315 3,800 -840 Descending Atlanta Center
18:02 35.5889 -81.0867 29° Northeast 263 303 3,400 -540 Descending Atlanta Center
18:03 35.6156 -81.0653 33° Northeast 252 290 3,300 -180 Descending Atlanta Center